Regional Weather Roundup
Issued by NWS

Home | Current Version | Previous Version | Text Only | Print | Product List | Glossary On
Versions: 1 2 3 4 5 6 7 8 9 10 11 12 13 14 15 16 17 18 19 20 21 22 23 24 25 26 27 28 29 30 31 32 33 34 35 36 37 38 39 40 41 42 43 44 45 46 47 48 49 50
775
ASUS43 KDTX 200710
RWRMI
MICHIGAN HOURLY REGIONAL WEATHER ROUNDUP
NATIONAL WEATHER SERVICE DETROIT/PONTIAC MI
ISSUED BY NATIONAL WEATHER SERVICE GRAND RAPIDS MI
300 AM EDT SUN AUG 20 2017

NOTE: "FAIR" INDICATES FEW OR NO CLOUDS BELOW 12,000 FEET WITH NO
SIGNIFICANT WEATHER AND/OR OBSTRUCTION TO VISIBILITY.

MIZ047>049-052>055-059>063-066>070-074>076-081>083-200800-
SOUTHEAST LOWER MICHIGAN

CITY           SKY/WX    TMP DP  RH WIND       PRES   REMARKS
ADRIAN         CLEAR     59  58  96 CALM      30.05R
ALMA           CLEAR     58  57  96 CALM      30.02S FOG
ANN ARBOR      FOG       54  54 100 CALM      30.03S VSB 1/2
BAD AXE        CLEAR     59  57  92 S3        30.00S
DETROIT CITY   CLEAR     66  58  75 SW5       30.03S
DETROIT        CLEAR     65  59  81 CALM      30.04R
FLINT          CLEAR     56  55  97 CALM      30.02S
GROSSE ILE     CLEAR     63  59  87 CALM      30.02S
HILLSDALE      PTCLDY    55  55 100 CALM      30.04S FOG
HOWELL         CLEAR     59  57  96 CALM      30.03S

CITY           SKY/WX    TMP DP  RH WIND       PRES   REMARKS
JACKSON        LGT RAIN  58  56  93 CALM      30.04S FOG
LANSING        CLEAR     60  57  89 CALM      30.03S
MASON          PTCLDY    57  56  94 CALM      30.04R FOG
MONROE         CLEAR     58  58  97 CALM      30.02S
MT. CLEMENS    CLEAR     66  59  79 W6        30.01R
PONTIAC        CLEAR     62  59  90 CALM      30.02F
PORT HOPE        N/A     66  61  84 SW6       29.97S
PORT HURON     CLEAR     59  55  88 CALM      30.02S
TRI CITIES     CLEAR     63  61  93 SW6       30.01S
YPSILANTI      CLEAR     61  60  97 CALM      30.04R
$$
MIZ043>046-050>051-056>058-064>065-071>073-077>080-200800-
SOUTHWEST LOWER MICHIGAN

CITY           SKY/WX    TMP DP  RH WIND       PRES   REMARKS
BATTLE CREEK   CLEAR     59  57  93 S3        30.04S
BENTON HARBOR  CLEAR     57  54  89 CALM      30.02S
BIG RAPIDS     CLEAR     58  56  94 CALM      30.01R
COLDWATER      CLEAR     57  57 100 CALM      30.04S FOG
HOLLAND        CLEAR     61  58  90 CALM      30.02S
GRAND RAPIDS   CLEAR     59  59 100 CALM      30.02S
KALAMAZOO      FOG       58  54  86 CALM      30.04R VSB 1/4
MARSHALL         N/A     55  54  97 CALM      30.03F FOG
MOUNT PLEASANT CLEAR     63  59  86 SW5       30.00S
MUSKEGON         N/A     64  62  93 SE3       30.01R
STURGIS        CLEAR     57  57  98 CALM      30.04R
$$
MIZ016>042-200800-
NORTHERN LOWER MICHIGAN

CITY           SKY/WX    TMP DP  RH WIND       PRES   REMARKS
ALPENA         PTCLDY    59  58  96 CALM      29.95F
BEAVER ISLAND  FOG       62  62 100 CALM      29.93S VSB 1/2
BELLAIRE       CLEAR     64  61  89 CALM      29.96S
CADILLAC       CLEAR     61  58  90 SW3       30.01S FOG
CHARLEVOIX     CLEAR     65  65 100 CALM      29.97S
GAYLORD        CLEAR     62  59  90 SW7       29.98S
HOUGHTON LAKE  CLEAR     64  60  87 SW7       30.01R
MANISTEE       CLEAR     58  58 100 E3        29.98R
OSCODA         CLOUDY    65  62  87 W8        29.96S
PELLSTON       CLEAR     59  58  96 CALM      29.94F
TRAVERSE CITY  CLEAR     66  61  84 SW5       29.95R
LUDINGTON      CLEAR     68  63  85 SW8       29.99S
$$
MIZ007>008-015-200800-
EASTERN UPPER MICHIGAN

CITY           SKY/WX    TMP DP  RH WIND       PRES   REMARKS
KINROSS        CLEAR     60  60 100 W3        29.94S FOG
MACKINAC ISLAN CLEAR     65  65  99 SW7       29.93S
NEWBERRY         N/A     57  56  97 SW5       29.93S FOG
S. S. MARIE    CLOUDY    59  57  93 CALM      29.92S FOG
$$
MIZ004>006-011>014-085-200800-
CENTRAL UPPER MICHIGAN

CITY           SKY/WX    TMP DP  RH WIND       PRES   REMARKS
MANISTIQUE     HAZE      55  49  81 CALM      29.92S VSB<1/4
ESCANABA       FOG       56  56 100 CALM      29.93S VSB 1/2
MENOMINEE      CLEAR     63  60  90 W3        29.96R
SAWYER-GWINN   CLEAR     54  53  95 CALM      29.94S
$$
MIZ001>003-009>011-084-200800-
WESTERN UPPER MICHIGAN

CITY           SKY/WX    TMP DP  RH WIND       PRES   REMARKS
IRON MOUNTAIN  CLEAR     60  55  83 CALM      29.94S
HOUGHTON         N/A    N/A N/A N/A MISG      29.89S
COPPER HARBOR    N/A     66  55  67 W7        29.86S
IRONWOOD       CLOUDY    65  59  81 SW6       29.93S
$$

ABBREVIATIONS USED IN REMARKS
   TC - TEMPERATURE IN CELSIUS
  WCI - WIND CHILL INDEX
   HX - HEAT INDEX
  VSB - VISIBILITY





USA.gov is the U.S. government's official web portal to all federal, state and local government web resources and services.